Flag for Germany Weather past 2 weeks in Eberswalde, Brandenburg, Germany

36 °F

Passing clouds.

Feels Like: 27 °F
Forecast: 33 / 40 °F
Wind: 13 mph from South

Location: Berlin-Tegel

Current Time: Nov 25, 2015 at 1:21:51 AM

Latest Report: Nov 25, 2015 at 12:50 AM

Visibility: N/A

Pressure: 29.83 "Hg

Humidity: 75%

Dew point: 28 °F

Location of EberswaldeLocation

Historic Weather in Eberswalde — Graph


Eberswalde temperature yesterday

Maximum temperature yesterday: 39 °F (at 12:20 PM)
Minimum temperature yesterday: 28 °F (at 12:20 AM)
Average temperature yesterday: 34 °F

Past Weeks' High & Low Weather Summary

High59 °F (Nov 10, 9:50 AM)100% (Nov 12, 10:50 PM)30.27 "Hg (Nov 12, 10:50 PM)
Low27 °F (Nov 23, 11:20 PM)55% (Nov 19, 12:50 PM)29.33 "Hg (Nov 21, 1:50 PM)
Average47 °F83%29.85 "Hg
* Reported Nov 9 11:20 PM — Nov 24 11:50 PM, Eberswalde, Weather by CustomWeather, © 2015

Note: Actual official high and low records may vary slightly from our data, if they occured in-between our weather recording intervals... More about our weather records


Eberswalde weather history for previous 24 hours

Time TempWeatherWind HumidityBarometerVisibility
11:50 PM
Tue, Nov 24
36 °FPassing clouds.14 mph75%29.83 "HgN/A
11:20 PM36 °FPassing clouds.14 mph75%29.86 "HgN/A
10:50 PM36 °FPartly cloudy.12 mph75%29.86 "HgN/A
10:20 PM36 °FPassing clouds.14 mph75%29.89 "HgN/A
9:50 PM36 °FClear.15 mph75%29.89 "Hg10 mi
9:20 PM36 °FPassing clouds.13 mph75%29.89 "HgN/A
8:50 PM36 °FClear.14 mph75%29.92 "Hg10 mi
8:20 PM36 °FClear.13 mph75%29.92 "Hg10 mi
7:50 PM36 °FClear.15 mph75%29.95 "Hg10 mi
7:20 PM36 °FClear.14 mph75%29.95 "Hg10 mi
6:50 PM36 °FClear.13 mph75%29.95 "Hg10 mi
6:20 PM36 °FClear.13 mph81%29.98 "Hg10 mi
5:50 PM37 °FPassing clouds.13 mph75%29.98 "HgN/A
5:20 PM37 °FClear.13 mph75%29.98 "Hg10 mi
4:50 PM37 °FPassing clouds.13 mph75%30.01 "HgN/A
4:20 PM37 °FClear.14 mph75%30.01 "Hg10 mi
3:50 PM37 °FSunny.14 mph75%30.01 "Hg10 mi
3:20 PM37 °FSunny.13 mph81%30.04 "Hg10 mi
2:50 PM37 °FBroken clouds.14 mph81%30.04 "HgN/A
2:20 PM37 °FPassing clouds.14 mph81%30.07 "HgN/A
1:50 PM37 °FPassing clouds.13 mph81%30.07 "HgN/A
1:20 PM37 °FSunny.14 mph81%30.07 "Hg10 mi
12:50 PM37 °FSunny.14 mph75%30.09 "Hg10 mi
12:20 PM39 °FSunny.14 mph70%30.09 "Hg10 mi
11:50 AM37 °FSunny.13 mph75%30.12 "Hg10 mi
11:20 AM37 °FSunny.9 mph81%30.12 "Hg10 mi
10:50 AM34 °FSunny.10 mph87%30.15 "Hg10 mi
10:20 AM34 °FSunny.12 mph87%30.15 "Hg10 mi
9:50 AM34 °FSunny.12 mph81%30.15 "Hg10 mi
9:20 AM34 °FPassing clouds.10 mph87%30.15 "HgN/A
8:50 AM32 °FSunny.10 mph87%30.15 "Hg10 mi
7:50 AM32 °FSunny.7 mph87%30.15 "Hg10 mi
7:20 AM32 °FChilly.8 mph80%30.15 "HgN/A
6:50 AM30 °FClear.7 mph86%30.18 "Hg10 mi
6:20 AM30 °FClear.6 mph86%30.18 "Hg10 mi
5:50 AM30 °FPassing clouds.6 mph86%30.18 "HgN/A
5:20 AM30 °FClear.6 mph86%30.18 "Hg10 mi
4:50 AM30 °FClear.6 mph86%30.18 "Hg10 mi
3:50 AM30 °FPassing clouds.3 mph93%30.18 "HgN/A
3:20 AM30 °FClear.5 mph93%30.21 "Hg10 mi
2:50 AM30 °FClear.5 mph93%30.21 "Hg10 mi
2:20 AM30 °FClear.6 mph93%30.21 "Hg10 mi
1:50 AM30 °FClear.6 mph93%30.21 "Hg10 mi
1:20 AM30 °FClear.6 mph93%30.21 "Hg10 mi
Weather by CustomWeather, © 2015

See weather overviewHow to use our weather pages